Miscellaneous Local Product
Issued by NWS Hastings, NE

Home | Current Version | Previous Version | Graphics & Text | Print | Product List | Glossary On
Versions: 1 2 3 4 5 6 7 8 9 10 11 12 13 14 15 16 17 18 19 20 21 22 23 24 25 26 27 28 29 30 31 32 33 34 35 36 37 38 39 40 41 42 43 44 45 46 47 48 49 50
538
AXUS43 KGID 300102
MISGRI

GID CWA HOURLY WEATHER ROUNDUP
NATIONAL WEATHER SERVICE HASTINGS NE
800 PM CDT FRI JUL 29 2016

NOTE: "FAIR" INDICATES FEW OR NO CLOUDS BELOW 12,000 FEET WITH NO
SIGNIFICANT WEATHER AND/OR OBSTRUCTIONS TO VISIBILITY.

...SOUTH CENTRAL NEBRASKA...

CITY           SKY/WX    TMP DP  RH WIND       PRES   REMARKS
GRAND ISLAND   CLEAR     75  63  66 E5        30.03F
HASTINGS       CLEAR     75  64  68 NE7       30.03S
KEARNEY        CLEAR     75  66  73 E5        30.04S
ORD            PTCLDY    76  59  55 CALM      30.02S
YORK           CLEAR     73  64  73 CALM      30.02S
AURORA         CLEAR     74  64  71 E5        30.02S
LEXINGTON      CLOUDY    75  66  73 E6        30.04R
HOLDREGE       CLEAR     75  66  73 NE5       30.03R
HEBRON         CLEAR     79  63  57 E5        30.01R

...NEBRASKA PANHANDLE...

CITY           SKY/WX    TMP DP  RH WIND       PRES   REMARKS
CHADRON        LGT RAIN  71  62  73 E8        30.04R
ALLIANCE       CLOUDY    72  61  68 S8        30.05F
SCOTTSBLUFF    TSTM      64  32  30 VRB5      30.13R
SIDNEY         CLOUDY    74  58  57 NE10G18   30.11F THUNDER

...WESTERN AND NORTH CENTRAL NEBRASKA...

CITY           SKY/WX    TMP DP  RH WIND       PRES   REMARKS
VALENTINE      MOSUNNY   76  60  57 SE9       30.03S
AINSWORTH      PTCLDY    72  63  72 SE7       30.04F
ONEILL         CLOUDY    76  55  47 CALM      30.05R
BROKEN BOW     CLOUDY    73  65  75 E6        30.05R
IMPERIAL       MOSUNNY   78  63  59 SE6       30.06S
NORTH PLATTE   CLOUDY    76  67  73 SE6       30.05R
MCCOOK         CLOUDY    82  61  48 NE5       30.03R

...EASTERN NEBRASKA...

CITY           SKY/WX    TMP DP  RH WIND       PRES   REMARKS
NORFOLK        CLEAR     75  56  51 E7        30.01F
SO SIOUX CITY  PTCLDY    77  60  55 NE8       30.01S
TEKAMAH        CLEAR     76  62  62 E5        30.01R
COLUMBUS       CLEAR     73  57  56 E5        30.02S
ALBION         CLEAR     74  59  59 CALM      30.03R
OMAHA EPPLEY   PTCLDY    77  62  59 NE9       30.00R
OFFUTT AFB     CLEAR     75  64  67 NE7       30.00R
MILLARD        PTCLDY    78  61  56 CALM      30.00S
LINCOLN        CLEAR     78  60  53 NE8       30.01R
NEBRASKA CITY  CLEAR     75  63  65 CALM      30.00S
BEATRICE       CLEAR     78  60  55 NE7       30.00S
FALLS CITY     CLEAR     78  64  61 CALM      29.98S

...NORTHERN KANSAS...

CITY           SKY/WX    TMP DP  RH WIND       PRES   REMARKS
GOODLAND       SUNNY     75  64  68 SE9       30.08S
HILL CITY      CLEAR     81  63  54 E5        30.01S
NORTON         CLEAR     81  55  41 E6        30.02
SMITH CENTER   CLEAR     75  64  69 E7        30.01R
BELOIT         CLEAR     81  64  57 NE8       29.98R
HAYS           CLEAR     84  61  45 E7        30.00R
RUSSELL        NOT AVBL
CONCORDIA      CLEAR     79  65  62 E5        29.99S
SALINA         CLEAR     84  66  54 E9        29.97S
TOPEKA         CLEAR     80  65  59 NE6       29.97S



USA.gov is the U.S. government's official web portal to all federal, state and local government web resources and services.